Location: Caltech
(34.1382°N, 118.1253°W)
Time: 21:59:56
(UTC-08:00)

Iridium 18 - Visible Passes

Search period start: 27 February 2017 00:00
Search period end: 09 March 2017 00:00
Orbit: 776 x 779 km, 86.4° (Epoch: 27 February)

Date Brightness Start Highest point End Pass type
(mag) Time Alt. Az. Time Alt. Az. Time Alt. Az.
27 Feb 7.3 04:59:33 10° NNE 05:04:18 35° E 05:09:02 10° SSE visible
28 Feb 8.3 04:27:01 10° NE 04:30:35 18° E 04:34:07 10° ESE visible
28 Feb 8.5 19:01:02 10° WSW 19:04:28 18° W 19:07:56 10° NW visible
01 Mar 5.5 05:32:46 10° N 05:38:00 80° W 05:43:12 10° S visible
01 Mar 7.5 18:26:04 10° SSW 18:30:45 33° W 18:35:27 10° NNW visible
02 Mar 6.4 04:59:22 10° N 05:04:28 52° E 05:09:32 10° SSE visible
03 Mar 7.7 04:26:26 10° NNE 04:30:50 27° E 04:35:12 10° SE visible
03 Mar 8.9 19:03:02 10° W 19:04:47 12° WNW 19:06:31 10° WNW visible
04 Mar 8.5 03:54:21 10° NE 03:57:03 14° ENE 03:59:44 10° ESE visible
04 Mar 5.6 05:32:59 10° NNW 05:38:03 53° W 05:43:06 10° SSW visible
04 Mar 8.3 18:26:54 10° SW 18:30:57 23° W 18:35:03 10° NNW visible
05 Mar 5.6 04:59:22 10° N 05:04:36 79° E 05:09:48 10° S visible
06 Mar 6.9 04:26:08 10° NNE 04:31:01 40° E 04:35:54 10° SSE visible
07 Mar 8.0 03:53:25 10° NNE 03:57:20 21° E 04:01:13 10° SE visible
07 Mar 6.1 05:33:22 10° NNW 05:38:05 35° W 05:42:47 10° SSW visible
07 Mar 8.7 18:28:14 10° WSW 18:31:14 15° WNW 18:34:15 10° NW visible
08 Mar 8.7 03:22:31 10° ENE 03:23:30 10° ENE 03:24:28 10° E visible
08 Mar 5.4 04:59:29 10° N 05:04:42 70° W 05:09:52 10° S visible
